Showing default

XCUBE-1, 62400

Orbit data source: Space-Track

XCUBE-1, 62400 is an American payload satellite in LEO that was launched on Sat, 21 Dec 2024 UTC via an FALCON 9 launch vehicle from the Air Force Western Test Range (AFWTR). Payload-class satellites include a variety of spacecraft equipped with specific instruments for various scientific and technological missions. These include communications satellites like Starlink; space stations such as the ISS; scientific satellites like the Hubble; Earth observation satellites from companies like Planet Labs, Umbra, and HawkEye 360; GPS; miniature CubeSats for education and research; and military/defense satellites.

Loading next visibility...
Identifier
62400, 2024-247Z
Orbit
LEO
Country
Flag of USUS
Related business
Manufacturer
EXOBOT
Mission
Operational Commercial Technology
Bus & Motor
CUBESAT 6U, Unknown motor
Mass
12 kg wet, 12 kg dry
Launch date (UTC)
2024-12-21 (2 years ago)
Launch vehicle
FALCON 9
Launch site
Air Force Western Test Range (AFWTR)
Object type
Payload
Rocket body
Debris
Shape & HBR
Box + 2 Pan, 1.0 m
Radar Cross Section
0.138 m², Medium (>0.1 m² and < 1m²)

Expand to show TLE details & history
Last TLE update: 15 hours ago

TLE from 15 hours ago
0 XCUBE-1
1 62400U 24247Z   26198.49293899  .00003899  00000-0  14194-3 0  9991
2 62400  44.9954 126.4245 0002938  22.4190 337.6821 15.30001131 87609
Epoch: 2026-07-17T11:49Z
TLE epoch observation values (Epoch: 2026-07-17T11:49:49.928Z)
Latitude
-0.00009°
Longitude
13.64712°
Altitude
473.945 km
Speed
7.632 km/s
True Right ascension
08h 25m 41s
True Declination
0° 00' 00"
Sunlit
Object was in daylight at epoch
Visualization orbit readout
Latitude
Unknown
Longitude
Unknown
Altitude
Unknown
Speed
Unknown
Apparent Right ascension
Unknown
Apparent Declination
Unknown
Sunlit
N/A
Visualization observer readout
Local Sidereal Time
15:34:53
Azimuth
Unknown
Elevation
Unknown
Doppler factor
Unknown
Orbital elements
Apogee altitude
479.435 km
Perigee altitude
475.406 km
Semi-major axis
6,855.558 km
Eccentricity
0.00029
Inclination
44.9954°
RAAN
126.4245°
Arg. of periapsis
22.419°
True anomaly
337.66931°
Mean anomaly
337.6821°
Eccentric anomaly
337.67571°
Mean motion
3.82366 °/min
Orbital period
94.15 mins
BSTAR
0.00014194
Loading maneuver chart data...
Computing Atmospheric mass density...
Loading historical data...
Loading historical data...
Loading historical data...
Loading historical data...
Loading historical data...
Loading historical data...
Loading historical data...

Documentation

Showing up to 5 results
|